Location: Banff
(51.1667°N, 115.5667°W)
Time: 06:46:59
(UTC+00:00)

Vanguard 2 Rocket - All Passes

Search period start: 27 November 2020 00:00
Search period end: 07 December 2020 00:00
Orbit: 554 x 3326 km, 32.9° (Epoch: 26 November)

Date Brightness Start Highest point End Pass type
(mag) Time Alt. Az. Time Alt. Az. Time Alt. Az.
27 Nov - 14:35:51 10° SSW 14:50:19 26° SSE 15:03:00 10° ESE visible
27 Nov - 16:48:29 10° SW 17:05:19 37° S 17:17:51 10° ESE daylight
27 Nov - 19:04:57 10° WSW 19:19:52 35° SSW 19:29:56 10° SE daylight
27 Nov - 21:24:00 10° WSW 21:32:31 19° SW 21:38:52 10° S daylight
28 Nov - 13:37:02 10° S 13:49:30 21° SE 14:01:16 10° ESE visible
28 Nov - 15:47:27 10° SW 16:04:16 35° SSE 16:17:51 10° ESE daylight
28 Nov - 18:02:47 10° WSW 18:19:20 38° S 18:30:55 10° SE daylight
28 Nov - 20:20:51 10° WSW 20:32:56 26° SSW 20:41:22 10° SSE daylight
29 Nov - 12:39:54 10° SSE 12:48:55 15° SE 12:57:54 10° ESE visible
29 Nov - 14:47:05 10° SSW 15:03:09 32° SSE 15:17:19 10° ESE visible
29 Nov - 17:01:01 10° WSW 17:18:27 40° S 17:31:29 10° ESE daylight
29 Nov - 19:18:09 10° WSW 19:32:53 33° SSW 19:43:05 10° SE daylight
29 Nov - 21:38:50 10° WSW 21:45:07 14° SW 21:50:15 10° SSW daylight
30 Nov - 13:47:31 10° SSW 14:02:08 27° SSE 14:16:06 10° E visible
30 Nov - 15:59:43 10° SW 16:17:17 39° S 16:31:36 10° ESE daylight
30 Nov - 18:15:48 10° WSW 18:32:24 38° SSW 18:44:14 10° SE daylight
30 Nov - 20:34:42 10° W 20:45:39 22° SW 20:53:43 10° S daylight
01 Dec - 12:48:58 10° S 13:01:21 21° SE 13:13:56 10° E visible
01 Dec - 14:59:01 10° SW 15:16:02 37° SSE 15:31:13 10° ESE daylight
01 Dec - 17:13:51 10° WSW 17:31:30 41° S 17:44:55 10° ESE daylight
01 Dec - 19:31:36 10° W 19:45:43 29° SSW 19:55:51 10° SSE daylight
02 Dec - 11:52:05 10° SSE 12:00:53 15° SE 12:10:07 10° ESE visible
02 Dec - 13:59:00 10° SSW 14:14:50 33° SSE 14:30:15 10° E visible
02 Dec - 16:12:23 10° WSW 16:30:19 42° S 16:45:08 10° ESE daylight
02 Dec - 18:29:02 10° WSW 18:45:19 35° SSW 18:57:17 10° SE daylight
02 Dec - 20:49:14 10° WSW 20:58:09 17° SW 21:05:14 10° S daylight
03 Dec - 12:59:46 10° SSW 13:13:51 27° SSE 13:28:35 10° E visible
03 Dec - 15:11:27 10° SW 15:28:57 41° S 15:44:50 10° ESE daylight
03 Dec - 17:26:56 10° WSW 17:44:29 40° SSW 17:58:07 10° SE daylight
03 Dec - 19:45:24 10° W 19:58:21 24° SW 20:08:08 10° S daylight
04 Dec - 12:01:33 10° S 12:13:11 21° SE 12:25:57 10° E visible
04 Dec - 14:11:08 10° SW 14:27:36 38° SSE 14:44:01 10° ESE visible
04 Dec - 16:25:20 10° WSW 16:43:18 42° S 16:58:27 10° ESE daylight
04 Dec - 18:42:31 10° W 18:58:05 31° SSW 19:09:58 10° SSE daylight
04 Dec - 21:05:34 10° WSW 21:10:27 12° SW 21:14:47 10° SSW daylight
05 Dec - 11:05:04 10° SSE 11:12:56 15° SE 11:21:34 10° ESE visible
05 Dec - 13:11:30 10° SSW 13:26:26 33° SSE 13:42:35 10° E visible
05 Dec - 15:24:14 10° WSW 15:41:54 43° S 15:58:15 10° ESE daylight
05 Dec - 17:40:14 10° WSW 17:57:21 37° SSW 18:11:03 10° SE daylight
05 Dec - 19:59:50 10° W 20:10:46 19° SW 20:19:37 10° S daylight
06 Dec - 12:12:37 10° SSW 12:25:36 27° SE 12:40:28 10° E visible
06 Dec - 14:23:44 10° SW 14:40:27 41° SSE 14:57:32 10° ESE visible
06 Dec - 16:38:30 10° WSW 16:56:13 41° SSW 17:11:32 10° SE daylight
06 Dec - 18:56:20 10° W 19:10:39 26° SW 19:22:06 10° SSE daylight
